Wind_Speed
50 49 51 50 49 50 50 48 47 42 40 35 34 35 34 33 31 30 29 28 28 28 28 28 28 29 29 30 30 30 30 30 31 31 31 31 32 32 33 34 35 36 37 38
50 49 50 52 49 46 46 45 44 42 39 34 34 36 35 34 32 30 28 28 28 28 27 28 28 29 29 30 30 30 30 30 30 31 31 31 31 32 33 34 35 36 37 38
48 49 52 53 49 47 45 44 43 42 35 34 36 36 35 34 31 29 28 28 28 27 27 28 28 28 29 29 29 29 29 30 30 30 30 31 32 33 33 34 36 36 37 39
48 50 53 49 46 46 44 43 41 39 36 36 35 34 35 34 32 30 29 28 28 28 28 28 29 29 29 29 29 28 29 29 29 30 31 32 32 32 33 35 36 37 38 39
46 48 49 47 44 44 43 43 40 38 36 36 35 37 36 33 32 30 29 29 28 28 28 29 29 29 29 29 28 28 28 29 30 30 31 32 32 33 34 35 36 37 38 39
46 46 46 41 39 40 42 43 38 38 36 37 38 38 32 31 31 31 30 29 29 28 28 28 28 29 29 29 29 28 29 29 30 30 31 32 33 34 35 35 36 37 38 40
45 45 42 38 39 41 42 34 32 35 35 36 37 34 30 32 32 31 30 29 29 29 28 28 28 29 29 29 28 28 29 29 30 30 31 32 33 34 34 35 36 38 39 41
43 43 41 37 38 39 34 31 32 33 34 35 34 33 33 33 33 32 31 30 29 29 28 29 28 28 28 28 28 29 29 29 30 31 32 33 33 34 34 36 37 39 41 42
41 41 38 35 34 33 33 33 33 33 33 33 33 33 33 33 32 31 30 29 29 29 29 29 28 27 27 28 28 28 29 30 31 32 33 33 34 34 36 37 38 40 41 43
39 39 36 32 31 32 33 33 33 32 32 32 31 30 30 30 30 30 29 28 28 29 29 28 27 27 27 27 28 29 30 31 32 32 33 33 34 35 37 38 39 41 42 43
39 37 36 33 30 30 32 32 32 32 31 30 30 28 28 28 29 29 28 27 27 27 27 27 27 27 27 28 28 29 30 31 32 32 33 34 35 36 37 39 40 41 42 44
35 33 34 32 31 32 32 31 30 30 30 30 29 28 27 27 27 28 28 27 27 27 27 27 27 27 27 27 28 29 30 31 32 33 34 34 36 37 38 40 41 42 43 45
33 32 33 33 33 32 31 30 30 29 29 29 29 28 27 26 27 27 27 27 26 26 26 26 26 27 27 28 29 30 30 31 32 33 34 35 36 38 39 40 41 43 44 46
33 31 32 33 32 31 31 30 30 30 28 28 28 27 27 26 26 26 26 26 26 26 26 26 27 27 28 29 30 30 31 32 33 33 35 36 37 38 40 41 42 44 45 47
33 32 32 32 32 32 31 31 30 29 28 28 28 28 26 26 25 25 25 25 25 25 26 27 27 28 29 29 30 31 32 32 33 34 35 37 38 39 41 42 43 44 46 48
33 34 34 34 32 31 31 30 30 29 28 28 27 27 26 26 25 25 25 25 25 25 26 27 28 28 29 30 31 31 32 33 34 35 36 37 39 40 42 43 44 45 47 49
32 33 34 33 32 30 30 30 30 30 29 29 28 27 27 26 26 25 25 26 26 26 27 27 28 29 29 30 31 32 33 34 35 36 37 39 40 41 42 43 45 46 48 51
32 32 33 34 33 32 31 30 30 30 29 29 29 28 27 27 26 27 27 27 27 27 28 28 29 29 30 31 32 33 34 35 36 37 39 40 41 42 43 45 46 48 50 53
32 32 32 33 33 32 32 31 30 30 29 29 28 28 27 27 27 28 27 28 28 28 29 29 30 30 31 32 33 33 34 36 37 39 40 41 42 43 45 46 48 50 52 54
31 31 32 33 33 32 32 31 31 30 29 29 29 29 29 29 29 29 28 28 29 29 29 30 30 31 32 33 33 34 36 37 38 40 41 42 43 44 46 48 50 52 54 55
32 31 31 32 32 31 31 31 30 30 30 29 29 29 29 29 29 29 29 29 29 30 30 30 31 31 32 33 35 36 37 38 39 41 42 43 44 46 48 50 51 53 54 56
32 30 30 31 31 30 30 30 29 29 29 29 29 29 29 29 29 29 29 29 30 30 31 31 32 33 33 34 36 37 38 39 40 41 43 44 46 47 49 51 52 54 56 57
30 30 30 31 31 30 30 29 29 29 29 29 30 29 29 29 28 28 29 29 30 31 32 32 33 33 34 35 36 37 39 40 41 43 44 46 48 49 51 52 54 56 57 57
29 29 30 30 30 29 28 28 28 28 28 28 29 28 28 28 28 28 29 30 31 31 32 33 33 34 35 36 37 38 39 41 42 44 46 48 49 51 52 54 56 57 56 56
28 28 29 30 29 28 28 28 27 27 27 28 28 28 28 28 29 29 30 30 31 32 32 33 34 34 35 36 38 39 41 42 44 46 47 49 51 52 54 55 56 55 55 54
28 28 28 29 29 29 28 28 28 28 27 27 27 27 28 28 29 30 30 30 31 32 33 33 34 35 36 38 39 41 42 44 46 47 49 51 52 53 54 54 54 54 54 54
27 27 27 27 27 27 27 27 27 27 28 28 28 28 28 29 29 30 30 30 31 32 33 33 35 36 38 39 41 42 44 46 47 49 51 51 52 53 53 54 54 54 53 53
Wind_Direction
223 225 227 228 229 229 231 233 236 236 237 237 240 242 244 245 246 246 246 247 249 251 255 257 258 259 260 262 264 265 266 267 267 268 269 271 273 275 277 278 279 282 284 286
222 224 226 226 225 227 228 230 232 233 233 233 237 240 242 243 243 244 246 248 250 251 253 256 258 259 260 262 263 264 265 266 267 268 270 271 273 276 277 279 281 284 285 287
221 224 227 225 223 226 227 228 230 232 232 232 235 239 241 242 242 243 245 247 250 251 253 255 257 259 261 262 263 264 265 266 267 268 269 271 274 276 278 280 283 285 286 288
220 223 228 227 226 229 231 230 231 232 229 231 234 236 238 239 240 242 245 247 249 251 253 255 257 259 261 262 263 264 265 266 267 269 270 273 275 277 279 281 284 286 287 289
221 225 227 226 225 227 228 229 229 231 228 230 232 235 235 237 240 243 246 247 249 251 253 254 256 258 260 261 262 263 265 266 268 270 272 275 276 278 281 283 285 286 288 290
221 225 226 223 224 226 229 228 225 229 229 229 231 234 234 238 241 244 246 246 248 251 252 253 255 258 259 261 262 264 266 267 269 271 273 276 278 280 282 284 285 287 290 292
221 225 223 221 222 224 227 224 224 228 229 230 232 233 232 235 239 242 244 245 247 249 250 252 255 257 259 261 262 264 266 268 270 272 275 278 280 282 283 284 287 289 291 293
221 223 219 219 221 223 225 224 224 225 227 231 231 230 231 234 237 239 242 243 245 247 249 251 254 257 259 260 261 263 266 269 271 274 277 279 281 282 284 286 288 290 292 294
222 220 219 220 221 221 222 223 224 225 228 230 230 231 233 234 236 238 241 243 244 246 248 251 253 256 258 260 262 265 267 270 273 275 278 280 282 284 286 288 290 292 293 295
216 216 218 219 219 218 219 221 224 226 226 227 228 229 232 233 235 238 241 243 244 245 248 251 253 256 258 260 263 266 269 272 275 277 279 281 283 285 288 290 292 293 295 296
214 214 216 215 214 213 215 217 220 225 226 227 228 229 230 232 234 237 239 240 242 245 247 250 253 256 259 262 265 269 271 274 276 278 280 283 285 287 290 292 293 295 296 297
210 213 214 211 211 213 214 215 219 223 225 226 227 228 229 231 234 236 237 239 242 245 247 250 254 257 261 264 267 270 273 276 278 280 282 285 287 290 292 293 295 296 297 299
208 210 209 208 210 212 214 215 218 221 224 225 225 227 229 231 233 234 235 239 242 245 248 252 255 259 263 266 270 272 275 277 280 282 284 287 289 292 294 295 296 297 299 301
208 208 207 207 209 211 215 216 218 220 222 223 223 225 228 230 231 233 236 238 242 246 250 254 258 262 265 269 272 274 277 279 282 284 286 289 292 294 295 296 298 299 301 302
209 208 207 208 209 211 214 216 217 219 221 223 225 227 229 230 232 234 237 241 245 249 253 257 261 265 268 271 274 277 279 281 283 286 289 291 294 295 296 298 299 301 302 304
209 209 210 211 212 213 214 216 218 220 223 225 227 228 228 229 232 236 240 244 248 253 257 261 264 268 271 274 276 278 281 283 285 288 291 293 295 297 297 299 300 302 304 306
210 212 214 214 214 215 217 219 221 224 226 226 227 229 231 233 236 240 244 247 251 256 260 264 267 270 273 275 278 280 282 285 287 290 293 296 297 298 298 300 302 304 305 307
211 213 214 214 215 217 219 220 222 224 226 227 228 230 233 237 240 243 246 250 255 259 263 266 269 272 275 277 279 281 284 286 289 292 295 297 298 298 300 301 303 305 307 308
209 212 213 214 215 218 218 219 221 223 224 226 229 232 235 239 243 245 248 252 257 261 265 268 271 273 276 278 281 283 285 288 291 294 296 297 298 299 301 303 305 306 307 309
210 212 213 214 215 217 217 219 221 223 226 229 232 235 238 242 244 248 252 256 259 262 266 269 272 274 277 280 282 285 287 289 292 295 297 298 299 301 303 304 306 307 308 309
211 213 214 215 215 215 216 219 222 224 227 231 234 238 241 244 247 251 254 257 261 265 267 270 273 276 279 281 283 285 288 290 293 295 297 299 300 302 303 305 306 308 309 310
210 212 214 214 214 215 218 221 224 226 229 232 235 238 241 245 248 252 256 260 263 266 269 271 274 277 280 283 285 287 289 292 294 297 299 300 301 302 304 306 307 308 309 310
212 213 213 213 214 216 219 222 226 228 231 234 236 239 242 246 250 255 258 261 265 267 270 273 276 279 282 284 286 288 291 293 296 298 300 301 302 303 305 306 307 308 309 310
210 212 213 213 215 217 220 224 227 230 232 235 239 242 245 249 252 256 260 264 267 269 272 275 278 281 284 286 288 290 293 295 297 300 301 302 303 305 306 307 308 309 310 310
210 211 213 215 217 219 222 225 229 232 235 238 242 246 249 252 255 259 263 266 269 271 274 276 279 282 284 287 289 292 295 297 299 301 302 303 304 305 306 308 309 309 310 310
211 212 213 215 219 222 225 228 231 234 237 241 244 247 250 253 257 261 264 267 269 273 276 278 281 283 286 289 292 294 296 298 300 301 303 304 305 306 308 308 309 309 310 310
210 212 214 217 220 223 227 230 234 237 240 242 245 249 252 255 258 261 264 267 271 274 277 279 282 285 288 291 293 295 297 299 300 302 304 305 306 307 309 309 310 310 310 309
Height
5564 5572 5579 5586 5593 5599 5604 5612 5619 5628 5634 5642 5647 5651 5655 5658 5661 5665 5668 5671 5673 5675 5676 5677 5678 5679 5680 5681 5681 5682 5682 5682 5682 5682 5681 5681 5680 5679 5678 5677 5675 5673 5671 5668
5553 5561 5567 5573 5581 5588 5595 5603 5610 5618 5624 5633 5637 5640 5644 5648 5652 5656 5659 5662 5664 5666 5668 5669 5670 5671 5672 5672 5673 5673 5673 5674 5673 5673 5673 5672 5671 5670 5669 5668 5666 5664 5661 5659
5544 5550 5553 5560 5573 5580 5587 5594 5602 5608 5619 5624 5627 5630 5635 5639 5643 5647 5651 5653 5655 5657 5659 5660 5661 5662 5663 5663 5664 5664 5665 5665 5665 5665 5664 5663 5663 5661 5660 5658 5656 5654 5652 5649
5534 5540 5543 5559 5569 5574 5580 5587 5594 5601 5609 5613 5618 5622 5625 5629 5634 5638 5641 5644 5646 5648 5650 5652 5653 5653 5654 5655 5655 5656 5656 5656 5656 5656 5655 5655 5654 5652 5651 5649 5647 5644 5642 5639
5524 5530 5537 5548 5558 5565 5571 5578 5587 5593 5599 5604 5608 5610 5614 5620 5625 5629 5632 5635 5637 5639 5641 5643 5644 5645 5646 5646 5647 5647 5648 5647 5647 5647 5647 5646 5644 5643 5641 5639 5637 5634 5631 5628
5516 5522 5529 5545 5553 5558 5563 5568 5579 5584 5589 5594 5596 5600 5609 5613 5616 5620 5623 5626 5628 5630 5632 5634 5635 5636 5637 5638 5639 5639 5639 5639 5639 5638 5638 5637 5635 5634 5632 5629 5627 5624 5621 5618
5509 5515 5524 5537 5543 5547 5553 5565 5573 5576 5581 5584 5588 5595 5603 5604 5607 5610 5614 5617 5619 5621 5623 5625 5627 5628 5629 5629 5630 5630 5630 5630 5630 5629 5629 5627 5626 5624 5622 5620 5617 5614 5611 5607
5501 5508 5521 5529 5534 5540 5549 5558 5562 5566 5571 5576 5581 5586 5590 5594 5597 5601 5605 5608 5610 5613 5615 5617 5618 5619 5620 5621 5621 5622 5622 5622 5621 5621 5619 5618 5616 5615 5612 5610 5607 5604 5600 5596
5497 5507 5514 5520 5527 5534 5540 5546 5552 5557 5562 5567 5572 5577 5581 5585 5589 5593 5596 5599 5602 5604 5606 5608 5610 5611 5612 5612 5613 5613 5613 5613 5612 5611 5610 5609 5607 5605 5602 5600 5597 5593 5589 5585
5489 5498 5506 5512 5518 5525 5531 5538 5543 5549 5554 5559 5564 5568 5573 5577 5581 5584 5588 5590 5593 5596 5598 5600 5601 5602 5603 5604 5604 5605 5604 5604 5603 5602 5601 5599 5597 5595 5592 5589 5586 5582 5578 5574
5482 5491 5498 5505 5511 5518 5524 5530 5536 5542 5547 5551 5556 5560 5565 5569 5573 5576 5579 5582 5585 5587 5590 5591 5593 5594 5595 5596 5596 5596 5595 5595 5594 5593 5591 5589 5587 5584 5581 5578 5575 5571 5567 5562
5478 5487 5493 5500 5506 5511 5517 5523 5529 5534 5539 5544 5548 5553 5557 5561 5564 5568 5571 5574 5577 5579 5581 5583 5584 5586 5586 5587 5587 5587 5586 5586 5584 5583 5581 5579 5577 5574 5570 5567 5563 5559 5555 5551
5471 5478 5485 5492 5498 5504 5510 5515 5522 5527 5532 5536 5541 5545 5549 5553 5557 5560 5563 5566 5569 5571 5573 5575 5576 5577 5578 5578 5578 5578 5577 5576 5575 5573 5571 5569 5566 5563 5560 5556 5552 5548 5543 5538
5464 5471 5477 5485 5491 5497 5503 5508 5514 5520 5524 5529 5534 5538 5542 5546 5549 5553 5556 5559 5561 5563 5565 5567 5568 5569 5569 5569 5569 5569 5568 5567 5565 5563 5561 5559 5556 5552 5549 5545 5541 5536 5531 5526
5459 5465 5472 5479 5485 5490 5496 5501 5507 5513 5518 5523 5527 5531 5535 5539 5542 5545 5548 5551 5554 5556 5557 5559 5560 5560 5560 5560 5560 5559 5558 5557 5555 5553 5551 5548 5545 5542 5538 5534 5529 5524 5519 5513
5453 5459 5466 5473 5479 5484 5490 5496 5501 5506 5511 5516 5520 5524 5528 5531 5535 5538 5541 5544 5546 5548 5549 5550 5551 5551 5551 5551 5550 5550 5548 5547 5545 5543 5540 5537 5534 5531 5527 5522 5518 5513 5507 5501
5447 5454 5461 5467 5473 5479 5484 5490 5495 5500 5504 5509 5513 5517 5521 5524 5527 5530 5533 5536 5537 5539 5540 5541 5542 5542 5542 5542 5541 5540 5538 5537 5535 5532 5530 5527 5523 5519 5515 5511 5506 5500 5494 5488
5442 5448 5455 5461 5467 5472 5478 5483 5488 5493 5498 5502 5506 5510 5514 5517 5520 5523 5525 5527 5529 5531 5532 5532 5533 5533 5532 5532 5531 5530 5528 5526 5524 5522 5519 5515 5512 5508 5503 5499 5493 5488 5481 5475
5436 5442 5448 5454 5460 5466 5472 5477 5482 5486 5491 5495 5499 5503 5506 5510 5512 5515 5517 5519 5521 5522 5523 5523 5523 5523 5523 5522 5521 5520 5518 5516 5514 5511 5508 5504 5500 5496 5491 5486 5481 5475 5468 5461
5431 5437 5443 5448 5454 5460 5465 5470 5475 5479 5484 5488 5492 5495 5499 5502 5504 5507 5509 5511 5512 5513 5513 5514 5514 5514 5513 5512 5511 5509 5507 5505 5503 5500 5496 5492 5488 5484 5479 5473 5468 5461 5454 5447
5426 5431 5437 5442 5448 5453 5458 5463 5468 5473 5477 5481 5485 5488 5491 5494 5496 5498 5500 5502 5503 5504 5504 5504 5504 5504 5503 5502 5501 5499 5497 5494 5491 5488 5484 5480 5476 5471 5466 5460 5454 5448 5441 5433
5420 5426 5431 5436 5442 5447 5452 5457 5461 5465 5469 5473 5477 5480 5483 5485 5488 5490 5491 5493 5494 5494 5495 5495 5494 5494 5493 5492 5490 5488 5486 5483 5480 5476 5472 5468 5463 5458 5453 5447 5441 5434 5427 5419
5414 5420 5425 5431 5436 5441 5445 5450 5454 5458 5462 5466 5469 5472 5475 5477 5479 5481 5483 5484 5484 5485 5485 5485 5484 5483 5482 5481 5479 5477 5474 5471 5468 5464 5460 5455 5450 5445 5439 5433 5427 5420 5412 5405
5409 5414 5419 5425 5429 5434 5439 5443 5447 5451 5455 5458 5461 5464 5466 5469 5471 5472 5473 5474 5475 5475 5475 5475 5474 5473 5472 5470 5468 5465 5462 5459 5456 5451 5447 5442 5437 5431 5425 5419 5412 5405 5398 5390
5404 5409 5414 5419 5424 5428 5432 5436 5440 5444 5447 5450 5453 5456 5458 5460 5462 5463 5464 5465 5465 5465 5465 5464 5463 5462 5461 5459 5456 5454 5450 5447 5443 5439 5434 5428 5423 5417 5411 5404 5397 5390 5383 5376
5399 5404 5408 5413 5417 5421 5425 5429 5433 5436 5440 5442 5445 5447 5449 5451 5453 5454 5455 5455 5455 5455 5455 5454 5453 5451 5449 5447 5445 5441 5438 5434 5430 5425 5420 5414 5408 5402 5396 5389 5382 5375 5368 5362
5394 5398 5402 5406 5411 5415 5418 5422 5425 5429 5432 5435 5437 5439 5441 5442 5444 5445 5445 5445 5445 5445 5444 5443 5442 5440 5438 5435 5432 5429 5425 5421 5416 5411 5406 5400 5394 5388 5381 5375 5368 5361 5354 5347